www.pogodaiklimat.ru
Время
и дата
02:53 30.12
03:53 30.12
04:53 30.12
05:53 30.12
06:18 30.12
06:53 30.12
07:38 30.12
07:53 30.12
08:53 30.12
09:53 30.12
10:53 30.12
11:53 30.12
12:53 30.12
13:53 30.12
14:11 30.12
14:53 30.12
15:06 30.12
15:53 30.12
16:53 30.12
17:53 30.12
18:53 30.12
19:53 30.12
20:53 30.12
21:53 30.12
22:53 30.12
23:53 30.12
00:53 31.12
01:53 31.12
02:53 31.12
03:53 31.12
04:53 31.12
05:53 31.12
06:53 31.12
07:53 31.12
08:10 31.12
08:53 31.12
09:53 31.12
10:44 31.12
10:53 31.12
11:27 31.12
11:53 31.12
12:53 31.12
13:26 31.12
13:53 31.12
14:53 31.12
15:33 31.12
15:53 31.12
16:53 31.12
Ветер
(напр.,м/с)
Видим. Явления Облачность Т
(С)
Тd
(С)
f
(%)
Тe
(С)
Тes
(С)
Комфортность P
(гПа)
Po
(гПа)
Тmin
(С)
Tmax
(С)
R
(мм)
R24
(мм)
S
(см)
штиль 0 8 км дымка 10/8 270 м
[Ac]
+12.2 +10.6 90 +12 +12 1010.9 989.4
З 1 8 км дымка 10/10 120 м +12.2 +10.0 86 +11 +11 1011.7 990.1
штиль 0 10 км дымка 10/10 180 м +12.2 +10.6 90 +12 +12 1011.9 990.4
СЗ 1 11 км 10/10 150 м +12.2 +10.0 86 +11 +11 1012.3 990.7 +11.1 +12.8 10.4
нст 1 6 км дымка 10/10 90 м +12.2 +10.0 86 +11 +11 991.1
СЗ 1 4 км дымка 10/10 90 м +11.7 +10.0 89 +11 +11 1013.0 991.4
З 1 3 км дымка 10/10 150 м +12.2 +10.0 86 +11 +11 992.1
штиль 0 3 км дымка 10/10 180 м +12.2 +10.0 86 +12 +12 1013.8 992.1
З 1 10 км дымка 10/10 180 м +12.2 +10.0 86 +11 +11 1014.2 992.4
штиль 0 16 км 10/10 210 м +12.8 +10.0 83 +12 +12 1014.4 992.7
штиль 0 16 км 10/10 210 м +13.3 +10.0 80 +13 +13 1013.8 992.1
штиль 0 16 км 10/10 210 м +13.3 +10.0 80 +13 +13 1013.2 991.7 +11.7 +13.3
штиль 0 16 км 10/10 240 м +13.9 +10.0 77 +14 +14 1012.6 991.1
Ю 1 16 км 10/10 270 м +13.9 +10.0 77 +13 +13 1012.5 991.1
нст 1 16 км 10/10 360 м +14.4 +10.6 78 +14 +14 991.1
нст 1 16 км 8/8 420 м +15.0 +10.0 72 +15 +15 1012.6 991.1
ЮЗ 1 16 км 5/5 480 м +15.6 +9.4 67 +15 +16 991.1
Ю 1 16 км 2/2 450 м
[Ci]
+15.0 +9.4 69 +15 +16 1012.6 991.1
Ю 1 16 км 5/0 7500 м
[Ci]
+12.2 +8.3 77 +11 +11 1013.0 991.4
Ю 1 16 км 5/0 7500 м
[Ci]
+11.7 +8.3 80 +11 +11 1013.1 991.4 +11.1 +15.6
Ю 1 16 км 5/0 7500 м
[Ci]
+11.1 +8.9 86 +10 +10 1013.3 991.7
Ю 1 16 км 2/0 7500 м
[Ci]
+11.7 +8.9 83 +10 +10 1013.1 991.4
Ю 1 0 м туман поземный ясно +9.4 +7.8 90 +8 +8 1013.4 991.7
Ю 1 6 км дымка ясно +10.0 +7.8 86 +8 +8 1012.9 991.1
штиль 0 6 км туман поземный, дымка ясно +9.4 +7.2 86 +9 +9 1013.0 991.4
Ю 1 13 км 10/0 3000 м
[Ac]
+11.1 +8.9 86 +10 +10 1012.3 990.7 +9.4 +12.2
Ю 1 16 км 10/0 3000 м
[Ac]
+10.6 +8.9 89 +8 +8 1012.3 990.7
Ю 1 16 км 10/2 1950 м
[Ac]
+11.7 +9.4 86 +10 +10 1012.2 990.7
Ю 1 16 км 10/0 3300 м
[Ac]
+12.2 +9.4 83 +11 +11 1012.2 990.7
Ю 1 16 км 8/0 3300 м
[Ac]
+13.3 +9.4 77 +13 +13 1011.3 989.8
Ю 1 16 км 10/0 2400 м
[Ac]
+13.9 +10.0 77 +13 +13 1011.7 990.1
Ю 1 16 км 8/8 1950 м
[Ac]
+14.4 +10.0 75 +14 +14 1012.0 990.4 +10.0 +14.4 0.3 0.3
нст 1 16 км 10/5 1800 м
[Ac]
+13.9 +10.0 77 +13 +13 1011.9 990.4
СВ 1 16 км 8/8 540 м
[Ac]
+13.9 +10.6 80 +13 +13 1011.9 990.4
СВ 1 16 км 10/8 540 м
[Ac]
+13.9 +11.1 83 +13 +13 990.7
нст 1 16 км 8/8 450 м
[Ac Ci]
+16.1 +12.2 78 +16 +16 1012.2 990.7
В 1 16 км 8/5 780 м
[Ac Ci]
+16.7 +12.2 75 +16 +17 1011.7 990.1
Ю 2 16 км 8/8 510 м
[Ci]
+20.0 +14.4 70 +22 +23 комфорт 989.4
Ю 2 16 км 10/10 540 м +20.0 +14.4 70 +22 +22 комфорт 1010.5 989.1
Ю 2
{4}
16 км 10/10 420 м +20.0 +15.0 73 +22 +22 комфорт 988.8
Ю 2 14 км 10/10 360 м +19.4 +15.0 76 +21 +21 комфорт 1009.6 988.1 +13.3 +20.0
Ю 2 11 км 10/10 300 м +19.4 +15.6 79 +21 +21 комфорт 1009.2 987.8
ЮЗ 2 13 км 10/10 450 м +20.6 +15.6 73 +24 +24 комфорт 987.1
ЮЗ 2 13 км 8/8 510 м
[Ac]
+21.7 +15.6 68 +25 +26 комфорт 1008.2 987.1
ЮЗ 1 16 км 8/8 840 м
[Ac]
+22.2 +15.0 64 +26 +26 душно 1008.3 987.1
ЮЗ 2 16 км 10/5 810 м
[Ac Ci]
+22.2 +15.6 66 +26 +26 душно 986.8
ЮЗ 1 16 км 8/2 810 м
[Ac Ci]
+21.7 +15.6 68 +25 +26 комфорт 1008.5 987.1
Ю 1 13 км 8/0 6000 м
[Ac Ci]
+20.6 +15.0 70 +24 +24 комфорт 1008.5 987.1
Местоположение метеостанции Nashville International Airport: широта 36.1189 долгота -86.6892 высота над уровнем моря 182 м.
В архиве по умолчанию представлена погода в Нэшвилле за последние 1-2 суток. Обновление информации о фактической погоде в базе происходит ежечасно! Архивные данные за месяц целиком и за предыдущие месяцы Вы можете получить, выбрав интересующий диапазон дат из раскрывающегося списка и нажав кнопку "Ввод!".
Внимание! Архив погоды МЕТАР в базе сайта по станциям, не включенным в климатический монитор, хранится не более 60 дней. Нет смысла пытаться выбрать более раннюю дату.
*Определитесь, кто Вы:
Внимание! Время в таблицах - местное (без учета летнего времени). Для получения всемирного времени необходимо вычесть поправку, которая равна -6 ч.
Смотрите также архив погоды в соседних городах и на ближайших метеорологических станциях:
Партнеры нашего сайта:      
Пояснения к столбцам:
  • Ветер - указаны скорость ветра в м/с - средняя за 10 мин, порывы в срок и между сроками (в фигурных скобках) и направление, откуда дует ветер: С - северный,
  • СВ - северо-восточный, В - восточный, ЮВ - юго-восточный, Ю - южный, ЮЗ - юго-западный, З - западный, СЗ - северо-западный.
  • Видимость - горизонтальная дальность видимости в метрах или километрах. При видимости от 1 до 10 км при отсутствии осадков обычно наблюдается дымка, при ухудшении видимости до 1 км и менее - туман. В сухую погоду видимость может ухудшаться дымом, пылью или мглою.
  • Явления - указаны атмосферные явления, наблюдавшиеся в срок или в последний час перед сроком; фигурными скобками обозначены явления, наблюдавшиеся между сроками (за 1-3 часа до срока); квадратными скобками обозначены град или гололедные отложения с указанием их диаметра в мм.
  • Облачность - указаны через наклонную черту общая и нижняя облачность в баллах и высота нижней границы облаков в метрах; квадратными скобками обозначены формы облаков: Ci - перистые, Cs - перисто-слоистые, Cc - перисто-кучевые, Ac - высококучевые, As - высокослоистые, Sc - слоисто-кучевые, Ns - слоисто-дождевые, Cu - кучевые, Cb - кучево-дождевые. Подробнее классификацию облаков см. в Атласе облаков (PDF).
  • T - Температура воздуха - температура, измеренная на высоте 2 м над землей.
  • Td - Температура точки росы - температура, при понижении до которой содержащийся в воздухе водяной пар достигнет насыщения.
  • f - Относительная влажность воздуха - влажноcть воздуха, измеренная на высоте 2 м над землей.
  • Te - Эффективная температура - температура, которую ощущает одетый по сезону человек в тени. Характеристика душности погоды. При расчете учитывается влияние влажности воздуха и скорости ветра на теплоощущения человека.
  • Tes - Эффективная температура на солнце - температура, которую ощущает человек, с поправкой на солнечный нагрев. Характеристика знойности погоды. Зависит от высоты солнца над горизонтом, облачности и скорости ветра. Ночью, в пасмурную погоду, а также при ветре 12 м/с и более поправка равна нулю.
  • P - Атмосферное давление - приведенное к уровню моря атмосферное давление.
  • Po - Атмосферное давление - измеренное на уровне метеостанции атмосферное давление.
  • Tmin - Минимальная температура - минимум температуры воздуха на высоте 2 м над землей.
  • Tmax - Максимальная температура - максимум температуры воздуха на высоте 2 м над землей.
  • R - Количество осадков - Количество выпавших осадков за период времени, мм. При наведении курсора мыши на число - период времени, за который выпало указанное количество осадков.
  • R24 - Количество осадков - Количество выпавших осадков за 24 часа, мм.
  • S - Снежный покров - Высота снежного покрова, см. При наведении курсора мыши на число - состояние снежного покрова и степень покрытия местности в баллах.